Regional Weather Roundup
Issued by NWS Goodland, KS

Home | Current Version | Previous Version | Text Only | Print | Product List | Glossary On
Versions: 1 2 3 4 5 6 7 8 9 10 11 12 13 14 15 16 17 18 19 20 21 22 23 24 25 26 27 28 29 30 31 32 33 34 35 36 37 38 39 40 41 42 43 44 45 46 47 48 49 50
000
ASUS43 KGLD 250259
RWRGLD

GOODLAND FORECAST AREA HOURLY WEATHER ROUNDUP
NATIONAL WEATHER SERVICE GOODLAND KS
800 PM MST FRI NOV 24 2017

...OFFICIAL OBSERVATIONS...

CITY           SKY/WX    TMP DP  RH WIND       PRES   REMARKS
GOODLAND KS    CLOUDY    49  35  58 NW7       30.01R
HILL CITY KS   CLOUDY    56  38  50 NE14      29.96F
IMPERIAL NEB   CLEAR     39  29  67 W5        30.01R
MCCOOK NEB     PTCLDY    49  32  52 NW5       30.00R
AKRON CO       CLOUDY    41  25  53 NE8       30.02S
BURLINGTON CO  CLOUDY    48  35  60 N5        30.03R
LIMON CO       CLEAR     39  32  76 NW5       30.05R
$$

...UNOFFICIAL OBSERVATIONS...

CITY           SKY/WX    TMP DP  RH WIND       PRES   REMARKS
LENORA KS        N/A     53  32  45 NE5         N/A
NORTON KS      CLEAR     48  30  49 NW8       29.98
SHARON SPRINGS   N/A     51  37  58 CALM        N/A
KIT CARSON CO    N/A     52  35  52 MISG        N/A
YUMA CO        FAIR      45  27  49 N3        30.01F
$$



USA.gov is the U.S. government's official web portal to all federal, state and local government web resources and services.